Location: Ç?ral? Körfezi
(36.3984°N, 30.4829°E)
Time: 09:51:34
(UTC+00:00)

DELTA 2 R/B (1) - Pass Details

Date: 04 August 2024
Orbit: 788 x 801 km, 39.6° (Epoch: 18 September)

Event Time Altitude Azimuth Distance (km) Brightness Sun altitude
Rises 17:56:22 0° 279° (W) 3,296 8.2 -10.9°
Reaches altitude 10° 17:58:53 10° 282° (WNW) 2,367 7.3 -11.3°
Maximum altitude 18:04:26 63° 4° (N) 887 4.0 -12.3°
Enters shadow 18:09:46 11° 85° (E) 2,288 5.5 -13.2°
